Location: Klein M�hlingen
(51.9472°N, 11.7453°E)
Time: 08:26:12
(UTC+00:00)

Envisat - Pass Details

Date: 27 September 2021
Orbit: 764 x 766 km, 98.2° (Epoch: 22 October)

Event Time Altitude Azimuth Distance (km) Brightness Sun altitude
Rises 02:41:55 0° 31° (NNE) 3,244 7.2 -22.4°
Reaches altitude 10° 02:46:41 10° 72° (ENE) 2,309 6.6 -21.8°
Maximum altitude 02:47:34 10° 82° (E) 2,278 6.4 -21.6°
Drops below altitude 10° 02:48:28 10° 92° (E) 2,305 6.3 -21.5°
Sets 02:53:11 0° 133° (SE) 3,223 6.5 -20.9°
